Torna al catalogo

COSMOS 2251 DEB

AttivoLEO
NORAD 33848·DEBRIS·🇷🇺 Russia

Lanciato Jun 16, 1993 da Plesetsk Cosmodrome

Loading…

Prossimi Passaggi (prossime 24 ore)

TLE

AggiornatoSource: Space-Track

Epoca: Sep 14, 2026, 13:34 UTC

1 33848U 93036CR  26257.56592917  .00001954  00000-0  55339-3 0  9990
2 33848  74.0293 203.6272 0043691 198.4126 278.9906 14.45662792918150

Traccia COSMOS 2251 DEB in tempo reale con AllMySat

Download on the App Store